Regional Weather Roundup
Issued by NWS

Home | Current Version | Previous Version | Text Only | Print | Product List | Glossary Off
Versions: 1 2 3 4 5 6 7 8 9 10 11 12 13 14 15 16 17 18 19 20 21 22 23 24 25 26

000
ASUS45 KTFX 111210
RWRMT
MONTANA REGIONAL WEATHER ROUNDUP
NATIONAL WEATHER SERVICE GREAT FALLS MT
500 AM MST MON DEC 11 2017

NOTE: "FAIR" INDICATES FEW OR NO CLOUDS BELOW 12000 FEET WITH NO
SIGNIFICANT WEATHER AND/OR OBSTRUCTIONS TO VISIBILITY.

MTZ001>007-043-111300-
WEST OF THE DIVIDE

CITY           SKY/WX    TMP DP  RH WIND       PRES   REMARKS
KALISPELL      CLOUDY    23  21  92 CALM      30.63R
MISSOULA       FOG       17  16  95 S3        30.63S VSB 3/4
BUTTE          FAIR      10   4  76 CALM      30.52R
MULLAN PASS    FAIR      39  32  76 S5        30.48S
ANACONDA         N/A     16   9  73 CALM      30.52R
DEER LODGE       N/A     10   9  92 W3        30.56R
EUREKA           N/A    N/A N/A N/A MISG      30.67R
HAMILTON         N/A     16  10  79 CALM      30.58F VSB 1/2
LIBBY            N/A     19  18  93 CALM      30.63S
RONAN            N/A     24  21  88 SE3       30.59S
$$

MTZ008-052>055-111300-
SOUTHWEST MONTANA

CITY           SKY/WX    TMP DP  RH WIND       PRES   REMARKS
BOZEMAN        FAIR      12   7  80 S6        30.52R WCI   3
DILLON         FAIR      22  10  60 S9        30.51S WCI  12
W YELLOWSTONE  FAIR      -6 -11  77 CALM      30.59R
ENNIS          CLOUDY    23  12  63 CALM      30.54S
THREE FORKS      N/A      7   2  80 CALM      30.45R
$$

MTZ009-010-012-014-046-048-049-054-111300-
EAST SLOPES AND CENTRAL MONTANA

CITY           SKY/WX    TMP DP  RH WIND       PRES   REMARKS
CUT BANK       FAIR      16  10  77 N9        30.40R WCI   4
GREAT FALLS    FAIR      27  15  61 SW10      30.42S WCI  17
MALMSTROM AFB  FAIR      31  15  52 W9        30.41F WCI  23
HELENA         MOCLDY    16  13  88 CALM      30.52S
BOWMANS CRNR   FAIR      31  13  46 SW13      30.40F WCI  21
CHOTEAU          N/A     27  14  59 W6        30.42S WCI  20
FAIRFIELD      FAIR      30  13  48 S3        30.40F
POWER          FAIR      22  14  71 W10       30.40F WCI  11
RAYNESFORD     FAIR      29  17  61 E3        30.42S
ULM            FAIR      32  17  52 S5        30.42F
$$

MTZ011-013-016-021-045-047-050-051-111300-
NORTH CENTRAL MONTANA

CITY           SKY/WX    TMP DP  RH WIND       PRES   REMARKS
HAVRE          FAIR      23  16  74 SW13      30.41R WCI  11
LEWISTOWN      FAIR      26  18  71 CALM      30.41R
N BAR RANCH    FAIR      37  14  38 W8        30.39R WCI  31
CHINOOK          N/A     27  18  69 CALM      30.40R
DENTON         FAIR      27  14  58 S7        30.38S WCI  20
GEYSER         FAIR      31  15  51 SW12      30.40S WCI  22
GRASS RANGE    FAIR      35  18  50 W14       30.34F WCI  25
STANFORD       FAIR      29  15  56 CALM      30.41S
WINIFRED       FAIR      31  16  53 W10       30.39R WCI  23
$$

MTZ017>020-022>027-061-062-111300-
NORTHEAST MONTANA

CITY           SKY/WX    TMP DP  RH WIND       PRES   REMARKS
GLASGOW        MOCLDY    33  23  66 NW14      30.31R WCI  23
GLENDIVE       CLOUDY    37  26  64 NW25G32   30.23R WCI  25
JORDAN           N/A     38  19  46 NW14      30.31R WCI  30
SIDNEY         CLOUDY    38  30  73 NW16      30.23R WCI  29
WOLF POINT     FAIR      37  27  67 W15       30.28R WCI  28
MALTA          CLEAR     27  19  74 W10       30.36S WCI  17
PLENTYWOOD       N/A     36  30  80 NW29G39   30.16R WCI  23
POPLAR           N/A     36  28  75 W9        30.27R WCI  29
$$

MTZ028>42-056>058-111300-
SOUTHCENTRAL AND SOUTHEAST MONTANA

CITY           SKY/WX    TMP DP  RH WIND       PRES   REMARKS
BAKER          CLOUDY    37  27  67 NW25G39   30.23R WCI  25
BILLINGS       FAIR      34  17  50 SW12      30.40R WCI  25
LIVINGSTON     FAIR      32  16  51 W17       30.45S WCI  21
MILES CITY     FAIR      39  21  48 W14G22    30.32R WCI  31
BIG TIMBER     CLEAR     41  10  28 W24       30.41S
FORSYTH          N/A     37  16  41 W9        30.35S WCI  31
LAUREL           N/A     28  18  64 W13       30.42R WCI  18
ROUNDUP          N/A     30  11  45 S7        30.25R WCI  23
$$

REGIONAL REPORTS...DAKOTAS

CITY           SKY/WX    TMP DP  RH WIND       PRES   REMARKS
WILLISTON      CLOUDY    37  30  75 NW25G33   30.17R WCI  25
MINOT          CLOUDY    38  30  73 NW24G38   30.03R WCI  27
DICKINSON      CLOUDY    36  29  75 NW23G32   30.09R WCI  24
BEACH          CLOUDY    36  28  75 NW25G38   30.22R WCI  23
CROSBY         CLOUDY    34  32  93 NW25G32   30.15R WCI  21
TIOGA          CLOUDY    34  34 100 N31G38    30.12R WCI  20
BISMARCK       CLOUDY    43  33  68 NW20G32   30.00R
GRAND FORKS    CLOUDY    33  30  88 N39G49    29.81R WCI  17
FARGO          CLOUDY    36  33  89 NW16      29.77R WCI  26
BUFFALO SD       N/A     39  24  55 NW36G43   30.09  WCI  26
RAPID CITY     FAIR      47  11  23 NW36G47   30.15F
$$

REGIONAL REPORTS...WYOMING/IDAHO/WASHINGTON

CITY           SKY/WX    TMP DP  RH WIND       PRES   REMARKS
GILLETTE       FAIR      35  16  45 NW17      30.31S WCI  25
SHERIDAN       FAIR      37  15  40 W6        30.38R
BUFFALO WY     FAIR      41  10  28 N20G28    30.35R
CODY           FAIR      26  12  55 CALM      30.41R
YELLOWSTONE LA   N/A      3   0  87 CALM      30.58S
IDAHO FALLS    FAIR      10   9  95 CALM      30.59S
SALMON         CLOUDY    16  13  88 CALM      30.73F
BOISE          CLOUDY    23  20  88 SE5       30.67S
SPOKANE        CLOUDY    24  24 100 N6        30.58S WCI  17
$$

REGIONAL REPORTS...ALBERTA

CITY           SKY/WX    TMP DP  RH WIND       PRES   REMARKS
EDMONTON       CLEAR     32  23  69 W6        30.32F WCI  26
CALGARY        PTCLDY    23  12  63 CALM      30.37F
LETHBRIDGE     CLEAR     19  14  79 S6        30.40S WCI  11
MEDICINE HAT   CLEAR     21  18  86 S6        30.39S WCI  14
$$

REGIONAL REPORTS...SASKATCHEWAN

CITY           SKY/WX    TMP DP  RH WIND       PRES   REMARKS
SWIFT CURRENT  CLEAR     27  21  80 W14       30.27R WCI  15
REGINA         CLOUDY    34  30  86 NW22G30   30.20R WCI  22
SASKATOON      CLOUDY    34  32  93 NW7       30.27R WCI  28
$$




USA.gov is the U.S. government's official web portal to all federal, state and local government web resources and services.